Regional Weather Roundup
Issued by NWS Cleveland, OH

Home | Current Version | Previous Version | Graphics & Text | Print | Product List | Glossary On
Versions: 1 2 3 4 5 6 7 8 9 10 11 12 13 14 15 16 17 18 19 20 21 22 23 24 25 26 27 28 29 30 31 32 33 34 35 36 37 38 39 40 41 42 43 44 45 46 47 48 49 50
000
ASUS41 KCLE 221610
RWRCLE
OHIO REGIONAL WEATHER ROUNDUP
NATIONAL WEATHER SERVICE WILMINGTON, OH
1200 PM EDT TUE AUG 22 2017

NOTE: "FAIR" INDICATES FEW OR NO CLOUDS BELOW 12,000 FEET WITH NO
SIGNIFICANT WEATHER AND/OR OBSTRUCTIONS TO VISIBILITY.

OHZ001>008-015>018-024>027-034-035-043-044-221700-
   NORTHWEST OHIO

CITY           SKY/WX    TMP DP  RH WIND       PRES   REMARKS
DEFIANCE       PTSUNNY   73  67  81 SW10      29.87F
FINDLAY        CLOUDY    75  67  76 W17       29.89R
TOLEDO EXPRESS LGT RAIN  73  69  87 SW13      29.85F
TOLEDO EXEC    LGT RAIN  74  70  87 W13G22    29.87R
LIMA           PTSUNNY   75  69  81 W14       29.91R
$$

OHZ009>014-019>023-028>033-038-089-221700-
   NORTHEAST OHIO

CITY           SKY/WX    TMP DP  RH WIND       PRES   REMARKS
CLE-HOPKINS    CLOUDY    80  71  74 SW15G31   29.86F
CLE-LAKEFRONT  FAIR      83  69  62 S18G25    29.82F
CUY CO. ARPT   PTSUNNY   82  72  69 W17G23    29.85F
LORAIN-ELYRIA  FAIR      80  67  64 SW12      29.86F
ASHTABULA      CLOUDY    78  74  87 SW13      29.87S
AKRON-CANTON   PTSUNNY   83  69  62 SW18G26   29.90F
WOOSTER        PTSUNNY   80  71  74 SW14G22   29.91F
MANSFIELD      FAIR      80  71  74 SW16G26   29.91F
YOUNGSTOWN     CLOUDY    83  70  64 SW13      29.89F
$$

OHZ042-051>053-060>062-070>072-077>081-221700-
  SOUTHWEST OHIO

CITY           SKY/WX    TMP DP  RH WIND       PRES   REMARKS
CINC-COVINGTON CLOUDY    85  76  74 W10G21    29.97S HX  94
CINC-LUNKEN    PTSUNNY   85  74  69 SW13      29.95S HX  92
HAMILTON       FAIR      85  73  67 SW10G20   29.95S HX  91
DAYTON         PTSUNNY   79  72  79 W14       29.95S
WRIGHT-PAT AFB PTSUNNY   75  73  94 SW5       29.93R THUNDER
DAYTON GENERAL FAIR      83  72  69 SW20G25   29.94S
WILMINGTON     PTSUNNY   86  75  69 SW20      29.94F HX  95
$$

OHZ036-037-039>041-045>050-054>059-063>069-073>076-082>088-221700-
  CENTRAL AND SOUTHEAST OHIO

CITY           SKY/WX    TMP DP  RH WIND       PRES   REMARKS
COLUMBUS       CLOUDY    84  73  69 W15G23    29.92F HX  90
OSU AIRPORT    PTSUNNY   82  75  79 SW15      29.91F
BOLTON FIELD   PTSUNNY   82  73  74 SW12G18   29.94F
RICKENBACK AFB PTSUNNY   84  74  73 SW17      29.93F HX  91
NEWARK         FAIR      83  73  72 SW14G23   29.93S
MARION         FAIR      79  70  74 W8        29.91F
LANCASTER      PTSUNNY   84  73  69 SW13      29.95F HX  90
ZANESVILLE     CLOUDY    82  73  74 SW8       29.94F
NEW PHILLY     FAIR      82  73  74 SW8       29.93F
$$



USA.gov is the U.S. government's official web portal to all federal, state and local government web resources and services.